User: anonymous   Login
Location: Columbus
(29.5618°N, 96.6770°W)
Time: 23:42:31
(UTC-05:00)
Language:

Cosmos 2056 Rocket - Orbit

View from above orbital plane
View from above orbital plane
View from above satellite
View from above satellite

Ground track
Ground track

The orbit data is extracted from the following two-line orbital elements,

1 20433U 90004B   16239.44474278  .00000044  00000-0  23844-4 0  9999
2 20433  74.0367 177.2283 0040583  16.7291 122.3547 14.35945935392890
Epoch (UTC): 26 August 2016 10:40:25
Eccentricity: 0.0040583
inclination: 74.0367°
perigee height: 743 km
apogee height: 801 km
right ascension of ascending node: 177.2283°
argument of perigee: 16.7291°
revolutions per day: 14.35945935
mean anomaly at epoch: 122.3547°
orbit number at epoch: 39289

The dashed part of the orbit path shows where the satellite is in the earth's shadow,  

DLR